Back to catalog

STARLINK-5220

AliveCommunicationsVLEO
NORAD 54760·PAYLOAD·🇺🇸 United States

Launched Dec 17, 2022 from Cape Canaveral Space Force Station

Loading…

Next Passes (next 24 hours)

TLE

FreshSource: CelesTrak SupGP

Epoch: Sep 14, 2026, 13:31 UTC

1 54760C 22175C   26257.56368056  .00046864  00000+0  13407-2 0  2571
2 54760  53.1585 272.2734 0001281  79.7006 157.4304 15.35377476    12

Track STARLINK-5220 in real time with AllMySat

Download on the App Store